﻿_id,日時,平均風速(m/s),平均風向,最大瞬間風速(m/s),最大風速時風向,気温(℃),湿度(%),10分間移動積算雨量(mm),1時間移動積算雨量(mm),日雨量(mm),累計雨量(mm)
1,2024-01-01T00:00:00,4.1,北北東,8.6,北東,7.4,94.2,0,0,3.5,3.5
2,2024-01-01T00:01:00,4,北北東,8.6,北東,7.5,93.7,0,0,0,3.5
3,2024-01-01T00:02:00,3.8,北北東,8.6,北東,7.4,94.2,0,0,0,3.5
4,2024-01-01T00:03:00,3.6,北北東,8.6,北東,7.4,95.2,0,0,0,3.5
5,2024-01-01T00:04:00,3.6,北北東,8.6,北東,7.4,95.1,0,0,0,3.5
6,2024-01-01T00:05:00,3.5,北北東,8.6,北東,7.3,95.5,0,0,0,3.5
7,2024-01-01T00:06:00,3.2,北北東,8.6,北東,7.4,95.3,0.5,0.5,0.5,4
8,2024-01-01T00:07:00,3.1,北北東,8.6,北東,7.3,95.6,0.5,0.5,0.5,4
9,2024-01-01T00:08:00,2.9,北北東,8.6,北東,7.2,96.2,0.5,0.5,0.5,4
10,2024-01-01T00:09:00,2.8,北北東,8.6,北東,7.3,95,0.5,0.5,0.5,4
11,2024-01-01T00:10:00,2.5,北北東,7.5,北北東,7.3,95,0.5,0.5,0.5,4
12,2024-01-01T00:11:00,2.5,北北東,7.5,北北東,7.3,94.9,0.5,0.5,0.5,4
13,2024-01-01T00:12:00,2.8,北北東,7.5,北北東,7.3,94.7,0.5,0.5,0.5,4
14,2024-01-01T00:13:00,2.9,北北東,7.6,北東,7.3,94.6,0.5,0.5,0.5,4
15,2024-01-01T00:14:00,2.6,北北東,7.6,北東,7.3,94.8,0.5,0.5,0.5,4
16,2024-01-01T00:15:00,2.6,北北東,7.6,北東,7.2,95.2,0.5,0.5,0.5,4
17,2024-01-01T00:16:00,2.8,北北東,8.4,北東,7.2,95.3,0,0.5,0.5,4
18,2024-01-01T00:17:00,2.8,北北東,8.4,北東,7.2,95.5,0,0.5,0.5,4
19,2024-01-01T00:18:00,2.8,北北東,8.4,北東,7.3,94.8,0,0.5,0.5,4
20,2024-01-01T00:19:00,2.9,北北東,8.4,北東,7.3,94.6,0,0.5,0.5,4
21,2024-01-01T00:20:00,3.1,北北東,8.4,北東,7.3,94.2,0,0.5,0.5,4
22,2024-01-01T00:21:00,3.1,北北東,8.4,北東,7.3,94.7,0,0.5,0.5,4
23,2024-01-01T00:22:00,3.3,北北東,10,北北東,7.4,92.2,0,0.5,0.5,4
24,2024-01-01T00:23:00,3.4,北北東,10,北北東,7.5,90,0,0.5,0.5,4
25,2024-01-01T00:24:00,3.8,北北東,12.2,北東,7.5,90.8,0,0.5,0.5,4
26,2024-01-01T00:25:00,4.1,北北東,12.2,北東,7.4,91,0,0.5,0.5,4
27,2024-01-01T00:26:00,4.1,北北東,12.2,北東,7.4,91.3,0,0.5,0.5,4
28,2024-01-01T00:27:00,4.4,北北東,12.2,北東,7.4,91.5,0,0.5,0.5,4
29,2024-01-01T00:28:00,4.7,北北東,12.2,北東,7.4,91.7,0,0.5,0.5,4
30,2024-01-01T00:29:00,4.9,北北東,12.2,北東,7.4,91,0,0.5,0.5,4
31,2024-01-01T00:30:00,4.9,北北東,12.2,北東,7.4,90.9,0,0.5,0.5,4
32,2024-01-01T00:31:00,5.1,北北東,12.2,北東,7.3,91.6,0,0.5,0.5,4
33,2024-01-01T00:32:00,5,北北東,12.2,北東,7.5,90.2,0,0.5,0.5,4
34,2024-01-01T00:33:00,4.8,北北東,12.2,北東,7.4,90.2,0,0.5,0.5,4
35,2024-01-01T00:34:00,4.5,北北東,11.4,北東,7.4,91,0,0.5,0.5,4
36,2024-01-01T00:35:00,4.4,北北東,10.8,北東,7.4,90.9,0,0.5,0.5,4
37,2024-01-01T00:36:00,4.2,北北東,10.8,北東,7.4,90.6,0,0.5,0.5,4
38,2024-01-01T00:37:00,4,北北東,10.8,北東,7.4,90.7,0,0.5,0.5,4
39,2024-01-01T00:38:00,3.8,北北東,10.8,北東,7.3,91.6,0,0.5,0.5,4
40,2024-01-01T00:39:00,3.4,北北東,10.8,北東,7.3,91.9,0,0.5,0.5,4
41,2024-01-01T00:40:00,3.3,北北東,10.8,北東,7.3,92.6,0,0.5,0.5,4
42,2024-01-01T00:41:00,3.3,北北東,10,北東,7.3,92.2,0,0.5,0.5,4
43,2024-01-01T00:42:00,3.2,北北東,8.5,北北東,7.3,91.8,0,0.5,0.5,4
44,2024-01-01T00:43:00,3.5,北北東,8.5,北北東,7.3,92.6,0,0.5,0.5,4
45,2024-01-01T00:44:00,3.6,北北東,8.5,北北東,7.2,93.8,0,0.5,0.5,4
46,2024-01-01T00:45:00,3.5,北北東,8.5,北北東,7.1,94.6,0,0.5,0.5,4
47,2024-01-01T00:46:00,3.7,北北東,8.5,北北東,7,94.4,0,0.5,0.5,4
48,2024-01-01T00:47:00,3.9,北北東,8.5,北北東,7,95.1,0,0.5,0.5,4
49,2024-01-01T00:48:00,4,北北東,8.5,北北東,7,95.1,0,0.5,0.5,4
50,2024-01-01T00:49:00,4.1,北北東,8.5,北北東,7,95.3,0,0.5,0.5,4
51,2024-01-01T00:50:00,4,北北東,8.5,北北東,6.9,95.8,0,0.5,0.5,4
52,2024-01-01T00:51:00,3.9,北北東,8.5,北北東,7,95.5,0,0.5,0.5,4
53,2024-01-01T00:52:00,3.7,北北東,8.4,北北東,6.9,95.9,0,0.5,0.5,4
54,2024-01-01T00:53:00,3.5,北北東,8.4,北北東,7,95.1,0,0.5,0.5,4
55,2024-01-01T00:54:00,3.3,北北東,8.4,北北東,7,95.4,0,0.5,0.5,4
56,2024-01-01T00:55:00,3.5,北北東,8.4,北北東,7,95.4,0,0.5,0.5,4
57,2024-01-01T00:56:00,3.2,北北東,8.4,北北東,7,95.5,0,0.5,0.5,4
58,2024-01-01T00:57:00,2.9,北北東,6.6,北東,6.9,96,0,0.5,0.5,4
59,2024-01-01T00:58:00,2.9,北北東,7.7,北東,6.9,95.7,0,0.5,0.5,4
60,2024-01-01T00:59:00,2.9,北北東,7.7,北東,6.9,95.6,0,0.5,0.5,4
61,2024-01-01T01:00:00,3,北北東,7.7,北東,6.9,95.6,0,0.5,0.5,4
62,2024-01-01T01:01:00,3,北北東,7.7,北東,6.9,95.7,0,0.5,0.5,4
63,2024-01-01T01:02:00,3.1,北北東,7.7,北東,6.9,95.9,0,0.5,0.5,4
64,2024-01-01T01:03:00,3.2,北北東,7.7,北東,6.9,95.4,0,0.5,0.5,4
65,2024-01-01T01:04:00,3.2,北北東,7.7,北東,6.9,95.4,0,0.5,0.5,4
66,2024-01-01T01:05:00,3.3,北北東,9.9,北北東,6.9,95.6,0,0.5,0.5,4
67,2024-01-01T01:06:00,3.6,北北東,9.9,北北東,6.9,94.5,0,0,0.5,4
68,2024-01-01T01:07:00,3.7,北北東,9.9,北北東,6.9,94.4,0,0,0.5,4
69,2024-01-01T01:08:00,3.6,北北東,9.9,北北東,6.9,94.8,0,0,0.5,4
70,2024-01-01T01:09:00,3.6,北北東,9.9,北北東,6.9,94.6,0,0,0.5,4
71,2024-01-01T01:10:00,3.6,北北東,9.9,北北東,6.9,94.8,0,0,0.5,4
72,2024-01-01T01:11:00,3.5,北北東,9.9,北北東,6.9,94.6,0,0,0.5,4
73,2024-01-01T01:12:00,3.5,北北東,9.9,北北東,6.9,93.8,0,0,0.5,4
74,2024-01-01T01:13:00,3.4,北北東,9.9,北北東,6.8,94.6,0,0,0.5,4
75,2024-01-01T01:14:00,3.5,北北東,9.9,北北東,6.8,94.8,0,0,0.5,4
76,2024-01-01T01:15:00,3.3,北北東,9.2,北北東,6.7,95,0,0,0.5,4
77,2024-01-01T01:16:00,3.1,北,8.5,北北東,6.7,95.2,0,0,0.5,4
78,2024-01-01T01:17:00,2.9,北北東,8.5,北北東,6.7,95.4,0,0,0.5,4
79,2024-01-01T01:18:00,2.9,北北東,8.5,北北東,6.7,95.4,0,0,0.5,4
80,2024-01-01T01:19:00,3.1,北北東,8.5,北北東,6.7,95.5,0,0,0.5,4
81,2024-01-01T01:20:00,3,北北東,8.5,北北東,6.6,95.8,0,0,0.5,4
82,2024-01-01T01:21:00,3,北北東,8.5,北北東,6.8,93.8,0,0,0.5,4
83,2024-01-01T01:22:00,3,北北東,7.8,北北西,6.8,93.8,0,0,0.5,4
84,2024-01-01T01:23:00,3.1,北北東,7.8,北北西,6.7,95.1,0,0,0.5,4
85,2024-01-01T01:24:00,2.8,北北東,7.8,北北西,6.7,95,0,0,0.5,4
86,2024-01-01T01:25:00,2.7,北北東,7.8,北北西,6.7,94.2,0,0,0.5,4
87,2024-01-01T01:26:00,2.8,北北東,7.8,北北西,6.8,92.6,0,0,0.5,4
88,2024-01-01T01:27:00,2.9,北北東,7.8,北北西,6.8,91.9,0,0,0.5,4
89,2024-01-01T01:28:00,3,北北東,7.8,北北西,6.8,92.3,0,0,0.5,4
90,2024-01-01T01:29:00,2.9,北,7.8,北北西,6.8,92.8,0,0,0.5,4
91,2024-01-01T01:30:00,2.7,北,7.8,北北西,6.7,94.4,0,0,0.5,4
92,2024-01-01T01:31:00,2.6,北北東,6.5,北北東,6.7,93.8,0,0,0.5,4
93,2024-01-01T01:32:00,2.5,北北東,6.1,北北東,6.7,93.5,0,0,0.5,4
94,2024-01-01T01:33:00,2.5,北北東,6.1,北北東,6.7,93.3,0,0,0.5,4
95,2024-01-01T01:34:00,2.7,北北東,6.1,北北東,6.7,93.8,0,0,0.5,4
96,2024-01-01T01:35:00,2.7,北北東,6.1,北北東,6.7,93,0,0,0.5,4
97,2024-01-01T01:36:00,2.7,北北東,6.1,北北東,6.7,93.7,0,0,0.5,4
98,2024-01-01T01:37:00,2.6,北北東,5.8,北北東,6.7,93.8,0,0,0.5,4
99,2024-01-01T01:38:00,2.6,北北東,5.8,北北東,6.7,93.3,0,0,0.5,4
100,2024-01-01T01:39:00,2.6,北北東,5.8,北北東,6.6,93.8,0,0,0.5,4
101,2024-01-01T01:40:00,2.9,北北東,5.8,北北東,6.6,93.8,0,0,0.5,4
102,2024-01-01T01:41:00,3,北北東,5.8,北北東,6.7,93.2,0,0,0.5,4
103,2024-01-01T01:42:00,3.2,北北東,5.8,北北東,6.7,93.1,0,0,0.5,4
104,2024-01-01T01:43:00,3,北北東,5.8,北北東,6.7,93.2,0,0,0.5,4
105,2024-01-01T01:44:00,3,北北東,5.8,北東,6.6,93.8,0,0,0.5,4
106,2024-01-01T01:45:00,3.2,北北東,6.4,北,6.7,93.3,0,0,0.5,4
107,2024-01-01T01:46:00,3.3,北北東,6.4,北,6.7,93.2,0,0,0.5,4
108,2024-01-01T01:47:00,3.3,北北東,6.4,北,6.7,93,0,0,0.5,4
109,2024-01-01T01:48:00,3.1,北北東,6.4,北,6.6,94.6,0,0,0.5,4
110,2024-01-01T01:49:00,3,北北東,6.4,北,6.6,95.1,0,0,0.5,4
111,2024-01-01T01:50:00,2.9,北北東,6.4,北,6.5,95.3,0,0,0.5,4
112,2024-01-01T01:51:00,2.7,北東,6.4,北,6.5,95.6,0,0,0.5,4
113,2024-01-01T01:52:00,2.5,北東,6.4,北,6.5,95.9,0,0,0.5,4
114,2024-01-01T01:53:00,2.6,北東,6.4,北,6.5,95.7,0,0,0.5,4
115,2024-01-01T01:54:00,2.4,北東,6.4,北,6.5,95.5,0,0,0.5,4
116,2024-01-01T01:55:00,2.1,北東,4.2,北東,6.5,95.7,0,0,0.5,4
117,2024-01-01T01:56:00,1.9,北東,3.7,北北東,6.4,95.8,0,0,0.5,4
118,2024-01-01T01:57:00,1.9,北東,3.6,北東,6.4,96.1,0,0,0.5,4
119,2024-01-01T01:58:00,2,北北東,3.6,北東,6.4,96.3,0,0,0.5,4
120,2024-01-01T01:59:00,1.9,北北東,3.6,北東,6.4,96.7,0,0,0.5,4
121,2024-01-01T02:00:00,1.9,北北東,3.3,北,6.3,97.2,0,0,0.5,4
122,2024-01-01T02:01:00,1.9,北北東,3.3,北,6.3,97.6,0,0,0.5,4
123,2024-01-01T02:02:00,1.8,北北東,3.3,北,6.3,97.7,0,0,0.5,4
124,2024-01-01T02:03:00,1.7,北北東,3.3,北,6.2,97.8,0,0,0.5,4
125,2024-01-01T02:04:00,1.6,北北東,3.3,北,6.3,97.9,0,0,0.5,4
126,2024-01-01T02:05:00,1.6,北北東,3.3,北,6.3,97.9,0,0,0.5,4
127,2024-01-01T02:06:00,1.6,北北東,3.3,北,6.3,97.7,0,0,0.5,4
128,2024-01-01T02:07:00,1.6,北北東,3.6,北東,6.4,97.5,0,0,0.5,4
129,2024-01-01T02:08:00,1.6,北北東,3.6,北東,6.4,96.8,0,0,0.5,4
130,2024-01-01T02:09:00,1.5,北北東,3.6,北東,6.6,95.7,0,0,0.5,4
131,2024-01-01T02:10:00,1.6,北北東,4,北北東,6.6,95.4,0,0,0.5,4
132,2024-01-01T02:11:00,1.7,北北東,4,北北東,6.6,94.7,0,0,0.5,4
133,2024-01-01T02:12:00,1.7,北北東,4,北北東,6.6,94.5,0,0,0.5,4
134,2024-01-01T02:13:00,1.8,北北東,4,北北東,6.7,93.2,0,0,0.5,4
135,2024-01-01T02:14:00,1.8,北北東,4,北北東,6.7,92.1,0,0,0.5,4
136,2024-01-01T02:15:00,1.8,北北東,4,北北東,6.7,93.7,0,0,0.5,4
137,2024-01-01T02:16:00,1.7,北北東,4,北北東,6.6,93.4,0,0,0.5,4
138,2024-01-01T02:17:00,1.7,北北東,4,北北東,6.6,93.4,0,0,0.5,4
139,2024-01-01T02:18:00,1.9,北北東,4.6,北北東,6.7,92.3,0,0,0.5,4
140,2024-01-01T02:19:00,1.8,北北東,4.6,北北東,6.7,92.1,0,0,0.5,4
141,2024-01-01T02:20:00,1.8,北,4.6,北北東,6.7,92.9,0,0,0.5,4
142,2024-01-01T02:21:00,1.7,北,4.6,北北東,6.7,92.1,0,0,0.5,4
143,2024-01-01T02:22:00,1.8,北,5.9,北東,6.7,92.1,0,0,0.5,4
144,2024-01-01T02:23:00,2.1,北,5.9,北東,6.7,91.5,0,0,0.5,4
145,2024-01-01T02:24:00,2.3,北,5.9,北東,6.7,91,0,0,0.5,4
146,2024-01-01T02:25:00,2.4,北北東,5.9,北東,6.7,91.8,0,0,0.5,4
147,2024-01-01T02:26:00,2.6,北北東,5.9,北東,6.7,92.1,0,0,0.5,4
148,2024-01-01T02:27:00,2.9,北北東,7.6,北北東,6.7,90.6,0,0,0.5,4
149,2024-01-01T02:28:00,2.9,北北東,7.6,北北東,6.8,90.3,0,0,0.5,4
150,2024-01-01T02:29:00,2.9,北北東,7.6,北北東,6.7,91.7,0,0,0.5,4
151,2024-01-01T02:30:00,3,北北東,7.6,北北東,6.6,91.9,0,0,0.5,4
152,2024-01-01T02:31:00,2.9,北北東,7.6,北北東,6.6,92.4,0,0,0.5,4
153,2024-01-01T02:32:00,2.8,北北東,7.6,北北東,6.6,93.1,0,0,0.5,4
154,2024-01-01T02:33:00,2.5,北北東,7.6,北北東,6.6,93,0,0,0.5,4
155,2024-01-01T02:34:00,2.4,北,7.6,北北東,6.5,93.7,0,0,0.5,4
156,2024-01-01T02:35:00,2.4,北,7.6,北北東,6.6,92.6,0,0,0.5,4
157,2024-01-01T02:36:00,2.3,北,7.6,北北東,6.6,92.8,0,0,0.5,4
158,2024-01-01T02:37:00,2,北,5.7,北北東,6.6,91.9,0,0,0.5,4
159,2024-01-01T02:38:00,1.9,北,5.7,北北東,6.7,91.3,0,0,0.5,4
160,2024-01-01T02:39:00,1.9,北,5.7,北北東,6.6,91.6,0,0,0.5,4
161,2024-01-01T02:40:00,2,北,5.7,北北東,6.6,92.1,0,0,0.5,4
162,2024-01-01T02:41:00,2.3,北,5.7,北北東,6.6,91.5,0,0,0.5,4
163,2024-01-01T02:42:00,2.5,北北東,5.9,北東,6.6,91,0,0,0.5,4
164,2024-01-01T02:43:00,2.5,北北東,5.9,北東,6.7,90.4,0,0,0.5,4
165,2024-01-01T02:44:00,2.6,北北東,5.9,北東,6.6,91,0,0,0.5,4
166,2024-01-01T02:45:00,2.6,北北東,5.9,北東,6.6,91.2,0,0,0.5,4
167,2024-01-01T02:46:00,2.7,北北東,5.9,北東,6.6,90,0,0,0.5,4
168,2024-01-01T02:47:00,2.8,北北東,6.4,北北東,6.7,88.2,0,0,0.5,4
169,2024-01-01T02:48:00,3,北北東,6.4,北北東,6.8,87.2,0,0,0.5,4
170,2024-01-01T02:49:00,3.3,北北東,7.7,北北東,6.7,87,0,0,0.5,4
171,2024-01-01T02:50:00,3.4,北北東,7.7,北北東,6.7,87.4,0,0,0.5,4
172,2024-01-01T02:51:00,3.3,北北東,7.7,北北東,6.7,87.5,0,0,0.5,4
173,2024-01-01T02:52:00,3.1,北北東,7.7,北北東,6.7,87.2,0,0,0.5,4
174,2024-01-01T02:53:00,3.1,北北東,7.7,北北東,6.7,87.8,0,0,0.5,4
175,2024-01-01T02:54:00,3.2,北北東,7.7,北北東,6.7,87.3,0,0,0.5,4
176,2024-01-01T02:55:00,3.1,北北東,7.7,北北東,6.7,87.5,0,0,0.5,4
177,2024-01-01T02:56:00,3.1,北北東,7.7,北北東,6.7,87.7,0,0,0.5,4
178,2024-01-01T02:57:00,3.1,北北東,7.7,北北東,6.6,88.1,0,0,0.5,4
179,2024-01-01T02:58:00,3,北北東,7.7,北北東,6.6,88.7,0,0,0.5,4
180,2024-01-01T02:59:00,2.9,北北東,6,北北東,6.6,88.6,0,0,0.5,4
181,2024-01-01T03:00:00,2.9,北北東,6,北北東,6.6,88.7,0,0,0.5,4
182,2024-01-01T03:01:00,2.8,北北東,5.4,北北東,6.6,89,0,0,0.5,4
183,2024-01-01T03:02:00,2.8,北北東,5.4,北北東,6.5,90,0,0,0.5,4
184,2024-01-01T03:03:00,2.9,北北東,5.4,北北東,6.5,90.1,0,0,0.5,4
185,2024-01-01T03:04:00,2.8,北北東,5.4,北北東,6.5,89.9,0,0,0.5,4
186,2024-01-01T03:05:00,2.9,北北東,7,北東,6.5,89.9,0,0,0.5,4
187,2024-01-01T03:06:00,3.1,北北東,7,北東,6.6,88.8,0,0,0.5,4
188,2024-01-01T03:07:00,2.9,北北東,7,北東,6.6,88,0,0,0.5,4
189,2024-01-01T03:08:00,2.9,北北東,7,北東,6.6,88.6,0,0,0.5,4
190,2024-01-01T03:09:00,2.9,北北東,7,北東,6.6,87.9,0,0,0.5,4
191,2024-01-01T03:10:00,2.7,北北東,7,北東,6.6,88,0,0,0.5,4
192,2024-01-01T03:11:00,2.5,北北東,7,北東,6.5,89.4,0,0,0.5,4
193,2024-01-01T03:12:00,2.6,北北東,7,北東,6.5,89.3,0,0,0.5,4
194,2024-01-01T03:13:00,2.5,北北東,7,北東,6.5,89.8,0,0,0.5,4
195,2024-01-01T03:14:00,2.5,北北東,7,北東,6.5,90.1,0,0,0.5,4
196,2024-01-01T03:15:00,2.5,北北東,6.8,北北東,6.5,89.3,0,0,0.5,4
197,2024-01-01T03:16:00,2.2,北北東,5.4,北北東,6.5,89.7,0,0,0.5,4
198,2024-01-01T03:17:00,2.3,北北東,5.4,北北東,6.6,88.4,0,0,0.5,4
199,2024-01-01T03:18:00,2.2,北,4.7,北北東,6.6,88.2,0,0,0.5,4
200,2024-01-01T03:19:00,2.1,北北東,4.3,北北東,6.6,88.5,0,0,0.5,4
201,2024-01-01T03:20:00,2,北,4.3,北北東,6.5,89.1,0,0,0.5,4
202,2024-01-01T03:21:00,2,北北東,4.3,北北東,6.5,89.9,0,0,0.5,4
203,2024-01-01T03:22:00,1.8,北,4.3,北北東,6.4,89.9,0,0,0.5,4
204,2024-01-01T03:23:00,1.7,北,4.3,北北東,6.3,91.8,0,0,0.5,4
205,2024-01-01T03:24:00,1.6,北,4.3,北北東,6.3,93.2,0,0,0.5,4
206,2024-01-01T03:25:00,1.4,北,4.2,北北東,6.3,93.6,0,0,0.5,4
207,2024-01-01T03:26:00,1.4,北,4.2,北北東,6.3,92.9,0,0,0.5,4
208,2024-01-01T03:27:00,1.3,北,3.7,西,6.4,91.8,0,0,0.5,4
209,2024-01-01T03:28:00,1.3,北,3.7,西,6.4,91.7,0,0,0.5,4
210,2024-01-01T03:29:00,1.4,北,3.8,北東,6.4,91.6,0,0,0.5,4
211,2024-01-01T03:30:00,1.5,北,3.8,北東,6.3,93.3,0,0,0.5,4
212,2024-01-01T03:31:00,1.5,北,3.8,北東,6.4,91.7,0,0,0.5,4
213,2024-01-01T03:32:00,1.6,北,3.8,北東,6.4,91.7,0,0,0.5,4
214,2024-01-01T03:33:00,1.7,北,3.8,北東,6.3,92.8,0,0,0.5,4
215,2024-01-01T03:34:00,1.7,北,3.8,北東,6.3,93.6,0,0,0.5,4
216,2024-01-01T03:35:00,1.7,北,3.8,北東,6.2,94.6,0,0,0.5,4
217,2024-01-01T03:36:00,1.6,北,3.8,北東,6.2,94.9,0,0,0.5,4
218,2024-01-01T03:37:00,1.7,北,3.8,北東,6.2,95.2,0,0,0.5,4
219,2024-01-01T03:38:00,1.7,北,3.8,北東,6.3,94.9,0,0,0.5,4
220,2024-01-01T03:39:00,1.6,北,2.9,北東,6.3,94.5,0,0,0.5,4
221,2024-01-01T03:40:00,1.6,北,2.9,北東,6.3,94.5,0,0,0.5,4
222,2024-01-01T03:41:00,1.5,北,2.9,北東,6.2,94,0,0,0.5,4
223,2024-01-01T03:42:00,1.5,北,2.9,北東,6.2,94.8,0,0,0.5,4
224,2024-01-01T03:43:00,1.4,北北東,2.9,北東,6.2,94.7,0,0,0.5,4
225,2024-01-01T03:44:00,1.5,北北東,2.9,北東,6.2,95,0,0,0.5,4
226,2024-01-01T03:45:00,1.6,北北東,3.6,北北東,6.3,93.9,0,0,0.5,4
227,2024-01-01T03:46:00,1.6,北北東,3.6,北北東,6.3,93.8,0,0,0.5,4
228,2024-01-01T03:47:00,1.5,北北東,3.6,北北東,6.3,94.6,0,0,0.5,4
229,2024-01-01T03:48:00,1.6,北北東,3.6,北北東,6.3,95,0,0,0.5,4
230,2024-01-01T03:49:00,1.7,北北東,3.7,北北東,6.3,94.6,0,0,0.5,4
231,2024-01-01T03:50:00,1.7,北北東,3.7,北北東,6.2,95,0,0,0.5,4
232,2024-01-01T03:51:00,1.7,北北東,3.7,北北東,6.2,95.6,0,0,0.5,4
233,2024-01-01T03:52:00,1.7,北北東,3.7,北北東,6.1,96.5,0,0,0.5,4
234,2024-01-01T03:53:00,1.6,北北東,3.7,北北東,6.1,96,0,0,0.5,4
235,2024-01-01T03:54:00,1.5,北,3.7,北北東,6.1,95.8,0,0,0.5,4
236,2024-01-01T03:55:00,1.4,北,3.7,北北東,6.1,95.6,0,0,0.5,4
237,2024-01-01T03:56:00,1.3,北北西,3.7,北北東,6.1,95.7,0,0,0.5,4
238,2024-01-01T03:57:00,1.2,北西,3.7,北北東,6,96,0,0,0.5,4
239,2024-01-01T03:58:00,1.1,北西,3.7,北北東,6,96.1,0,0,0.5,4
240,2024-01-01T03:59:00,0.9,北西,2.6,北北東,6,96.5,0,0,0.5,4
241,2024-01-01T04:00:00,0.7,西北西,2.1,北北東,6,96,0,0,0.5,4
242,2024-01-01T04:01:00,0.7,西北西,1.8,北西,6,96,0,0,0.5,4
243,2024-01-01T04:02:00,0.7,西北西,1.8,北西,5.9,96,0,0,0.5,4
244,2024-01-01T04:03:00,0.7,北西,1.8,北西,5.9,96.2,0,0,0.5,4
245,2024-01-01T04:04:00,0.6,西北西,1.8,北西,5.8,96,0,0,0.5,4
246,2024-01-01T04:05:00,0.6,北西,1.8,北西,5.8,95.7,0,0,0.5,4
247,2024-01-01T04:06:00,0.7,北西,1.8,北西,5.8,95.3,0,0,0.5,4
248,2024-01-01T04:07:00,0.7,北西,2.3,北西,5.8,95.4,0,0,0.5,4
249,2024-01-01T04:08:00,0.7,北西,2.3,北西,5.8,95.5,0,0,0.5,4
250,2024-01-01T04:09:00,0.7,北西,2.3,北西,5.8,95.7,0,0,0.5,4
251,2024-01-01T04:10:00,0.8,北西,3.5,西,5.8,95.3,0,0,0.5,4
252,2024-01-01T04:11:00,1,北西,5,北,5.8,95.5,0,0,0.5,4
253,2024-01-01T04:12:00,1.2,北西,7.4,北北西,5.9,94.5,0,0,0.5,4
254,2024-01-01T04:13:00,1.2,北西,7.4,北北西,5.9,95,0,0,0.5,4
255,2024-01-01T04:14:00,1.3,北西,7.4,北北西,5.9,95.4,0,0,0.5,4
256,2024-01-01T04:15:00,1.3,北北西,7.4,北北西,5.8,95.9,0,0,0.5,4
257,2024-01-01T04:16:00,1.3,北北西,7.4,北北西,5.8,96.3,0,0,0.5,4
258,2024-01-01T04:17:00,1.3,北北西,7.4,北北西,5.8,95.9,0,0,0.5,4
259,2024-01-01T04:18:00,1.3,北北西,7.4,北北西,5.7,96.2,0,0,0.5,4
260,2024-01-01T04:19:00,1.4,北北西,7.4,北北西,5.8,96,0,0,0.5,4
261,2024-01-01T04:20:00,1.4,北,7.4,北北西,5.9,95.4,0,0,0.5,4
262,2024-01-01T04:21:00,1.2,北,7.4,北北西,5.9,95.3,0,0,0.5,4
263,2024-01-01T04:22:00,1,北,4.3,北東,5.9,95.5,0,0,0.5,4
264,2024-01-01T04:23:00,1.1,北,4.3,北東,5.9,95.2,0,0,0.5,4
265,2024-01-01T04:24:00,1.2,北,4.3,北東,5.9,94,0,0,0.5,4
266,2024-01-01T04:25:00,1.2,北,4.3,北東,5.9,95,0,0,0.5,4
267,2024-01-01T04:26:00,1.1,北,4.3,北東,5.9,95.3,0,0,0.5,4
268,2024-01-01T04:27:00,1.2,北,4.3,北東,5.9,95,0,0,0.5,4
269,2024-01-01T04:28:00,1.3,北,4.3,北東,5.9,95.6,0,0,0.5,4
270,2024-01-01T04:29:00,1.2,北,3.6,西,5.9,95.7,0,0,0.5,4
271,2024-01-01T04:30:00,1.2,北,3.6,西,5.9,95.9,0,0,0.5,4
272,2024-01-01T04:31:00,1.2,北,3.6,西,5.9,95.7,0,0,0.5,4
273,2024-01-01T04:32:00,1.2,北,3.6,西,5.9,96.2,0,0,0.5,4
274,2024-01-01T04:33:00,1.1,北,3.6,西,5.9,95.5,0,0,0.5,4
275,2024-01-01T04:34:00,1,北,2.5,西北西,5.9,95.5,0,0,0.5,4
276,2024-01-01T04:35:00,1,北,2.5,西北西,5.9,95.6,0,0,0.5,4
277,2024-01-01T04:36:00,0.9,北,2.5,西北西,5.9,95.4,0,0,0.5,4
278,2024-01-01T04:37:00,0.8,北,2.5,西北西,5.8,95.4,0,0,0.5,4
279,2024-01-01T04:38:00,0.7,北,2.5,西北西,5.8,95.8,0,0,0.5,4
280,2024-01-01T04:39:00,0.6,北北西,2.5,西北西,5.8,96.6,0.5,0.5,1,4.5
281,2024-01-01T04:40:00,0.6,北北西,2.5,西北西,5.7,96.7,0.5,0.5,1,4.5
282,2024-01-01T04:41:00,0.6,北北西,3,西北西,5.8,96.4,0.5,0.5,1,4.5
283,2024-01-01T04:42:00,0.7,北北西,3.7,北西,5.8,96,0.5,0.5,1,4.5
284,2024-01-01T04:43:00,0.7,北北西,3.7,北西,5.9,96,0.5,0.5,1,4.5
285,2024-01-01T04:44:00,0.8,北北西,3.7,北西,5.8,96.2,0.5,0.5,1,4.5
286,2024-01-01T04:45:00,0.9,北西,3.7,北西,5.8,96.4,0.5,0.5,1,4.5
287,2024-01-01T04:46:00,0.9,北西,3.7,北西,5.8,95.8,0.5,0.5,1,4.5
288,2024-01-01T04:47:00,0.9,北北西,3.7,北西,5.7,96.6,0.5,0.5,1,4.5
289,2024-01-01T04:48:00,0.9,北北西,3.7,北西,5.6,97.6,0.5,0.5,1,4.5
290,2024-01-01T04:49:00,0.9,北北西,3.7,北西,5.6,97.8,0,0.5,1,4.5
291,2024-01-01T04:50:00,0.9,北北西,3.7,北西,5.6,97.8,0,0.5,1,4.5
292,2024-01-01T04:51:00,0.9,北北西,3.7,北西,5.6,97.9,0,0.5,1,4.5
293,2024-01-01T04:52:00,0.8,北北西,2.8,北西,5.6,97.4,0,0.5,1,4.5
294,2024-01-01T04:53:00,0.8,北北西,2.8,北西,5.7,96.9,0,0.5,1,4.5
295,2024-01-01T04:54:00,0.8,北北西,2.8,北西,5.7,97.1,0,0.5,1,4.5
296,2024-01-01T04:55:00,0.7,北北西,1.9,北西,5.6,97.3,0,0.5,1,4.5
297,2024-01-01T04:56:00,0.7,北北西,1.7,北北東,5.6,98,0,0.5,1,4.5
298,2024-01-01T04:57:00,0.8,北北西,1.7,北北東,5.5,98.4,0,0.5,1,4.5
299,2024-01-01T04:58:00,0.8,北北西,1.7,北北東,5.5,97.8,0,0.5,1,4.5
300,2024-01-01T04:59:00,0.8,北北西,1.7,北北東,5.5,98.1,0,0.5,1,4.5
301,2024-01-01T05:00:00,0.8,北北西,1.7,北北東,5.6,98.3,0,0.5,1,4.5
302,2024-01-01T05:01:00,0.8,北北西,1.7,北北東,5.5,98,0,0.5,1,4.5
303,2024-01-01T05:02:00,0.8,北,2.9,北東,5.5,97.8,0,0.5,1,4.5
304,2024-01-01T05:03:00,0.9,北,2.9,北東,5.6,97.9,0,0.5,1,4.5
305,2024-01-01T05:04:00,0.9,北,3.4,北東,5.6,97.8,0,0.5,1,4.5
306,2024-01-01T05:05:00,0.9,北,3.4,北東,5.7,96.8,0,0.5,1,4.5
307,2024-01-01T05:06:00,1.1,北,5.1,北北西,5.8,95.7,0,0.5,1,4.5
308,2024-01-01T05:07:00,1.2,北,5.1,北北西,5.7,96.3,0.5,1,1.5,5
309,2024-01-01T05:08:00,1.2,北,5.1,北北西,5.8,93.6,0.5,1,1.5,5
310,2024-01-01T05:09:00,1.4,北北西,5.1,北北西,5.7,94.6,0.5,1,1.5,5
311,2024-01-01T05:10:00,1.6,北西,5.1,北北西,5.7,94.9,0.5,1,1.5,5
312,2024-01-01T05:11:00,1.6,北西,5.1,北北西,5.6,94.7,0.5,1,1.5,5
313,2024-01-01T05:12:00,1.7,北西,5.1,北北西,5.6,94.4,0.5,1,1.5,5
314,2024-01-01T05:13:00,1.7,北西,5.1,北北西,5.7,92.5,0.5,1,1.5,5
315,2024-01-01T05:14:00,1.6,北西,5.1,北北西,5.6,93.6,0.5,1,1.5,5
316,2024-01-01T05:15:00,1.8,北西,6.2,西北西,5.7,93.1,0.5,1,1.5,5
317,2024-01-01T05:16:00,1.8,西北西,6.2,西北西,5.8,90.8,0.5,1,1.5,5
318,2024-01-01T05:17:00,1.9,北西,6.2,西北西,5.8,91.5,0,1,1.5,5
319,2024-01-01T05:18:00,1.9,北西,6.2,西北西,5.7,92.3,0,1,1.5,5
320,2024-01-01T05:19:00,1.7,北西,6.2,西北西,5.7,92.1,0,1,1.5,5
321,2024-01-01T05:20:00,1.6,北北西,6.2,西北西,5.6,93.1,0,1,1.5,5
322,2024-01-01T05:21:00,1.6,北北西,6.2,西北西,5.6,93.1,0,1,1.5,5
323,2024-01-01T05:22:00,1.6,北北西,6.2,西北西,5.6,92.7,0,1,1.5,5
324,2024-01-01T05:23:00,1.6,北北西,6.2,西北西,5.6,93.6,0,1,1.5,5
325,2024-01-01T05:24:00,1.7,北北西,6.2,西北西,5.6,94.4,0,1,1.5,5
326,2024-01-01T05:25:00,1.6,北北西,6,西北西,5.6,93.4,0,1,1.5,5
327,2024-01-01T05:26:00,1.6,北北西,4.9,西北西,5.6,93.2,0,1,1.5,5
328,2024-01-01T05:27:00,1.5,北北西,4.9,西北西,5.6,92.3,0,1,1.5,5
329,2024-01-01T05:28:00,1.5,北西,4.9,西北西,5.6,91.5,0,1,1.5,5
330,2024-01-01T05:29:00,1.7,北西,5.9,西,5.5,92.5,0,1,1.5,5
331,2024-01-01T05:30:00,1.8,北西,5.9,西,5.6,91.6,0,1,1.5,5
332,2024-01-01T05:31:00,1.9,北西,6.1,西北西,5.7,89.8,0,1,1.5,5
333,2024-01-01T05:32:00,1.9,北西,6.1,西北西,5.6,90.5,0,1,1.5,5
334,2024-01-01T05:33:00,1.9,西北西,6.1,西北西,5.6,91.2,0,1,1.5,5
335,2024-01-01T05:34:00,1.8,西北西,6.1,西北西,5.5,91.5,0,1,1.5,5
336,2024-01-01T05:35:00,1.8,北西,6.1,西北西,5.5,91.7,0,1,1.5,5
337,2024-01-01T05:36:00,1.6,北西,6.1,西北西,5.5,93.1,0,1,1.5,5
338,2024-01-01T05:37:00,1.6,北西,6.1,西北西,5.4,94.6,0,1,1.5,5
339,2024-01-01T05:38:00,1.5,北西,6.1,西北西,5.5,93.9,0,1,1.5,5
340,2024-01-01T05:39:00,1.3,北西,6.1,西北西,5.5,93.6,0,0.5,1.5,5
341,2024-01-01T05:40:00,1.1,北北西,6.1,西北西,5.4,95,0,0.5,1.5,5
342,2024-01-01T05:41:00,1,北北西,4.1,北西,5.5,94.4,0,0.5,1.5,5
343,2024-01-01T05:42:00,0.9,北北西,2.6,北北西,5.4,95.5,0,0.5,1.5,5
344,2024-01-01T05:43:00,1,北北西,3.7,北北東,5.4,95.7,0,0.5,1.5,5
345,2024-01-01T05:44:00,1.1,北,3.7,北北東,5.5,95,0,0.5,1.5,5
346,2024-01-01T05:45:00,1.1,北,3.7,北北東,5.4,95.7,0,0.5,1.5,5
347,2024-01-01T05:46:00,1.1,北,3.7,北北東,5.4,95.6,0,0.5,1.5,5
348,2024-01-01T05:47:00,1.2,北,3.7,北北東,5.5,95.8,0,0.5,1.5,5
349,2024-01-01T05:48:00,1.2,北,3.7,北北東,5.4,96.2,0,0.5,1.5,5
350,2024-01-01T05:49:00,1.4,北,3.7,北北東,5.4,96.3,0,0.5,1.5,5
351,2024-01-01T05:50:00,1.6,北,3.7,北北東,5.6,94.1,0,0.5,1.5,5
352,2024-01-01T05:51:00,1.6,北,5,北東,5.6,94.4,0,0.5,1.5,5
353,2024-01-01T05:52:00,1.6,北,5,北東,5.5,95.2,0,0.5,1.5,5
354,2024-01-01T05:53:00,1.5,北,5,北東,5.5,95.2,0,0.5,1.5,5
355,2024-01-01T05:54:00,1.5,北,5,北東,5.6,93.9,0,0.5,1.5,5
356,2024-01-01T05:55:00,1.5,北,5,北東,5.6,94.4,0,0.5,1.5,5
357,2024-01-01T05:56:00,1.5,北北西,5,北東,5.5,95.1,0,0.5,1.5,5
358,2024-01-01T05:57:00,1.4,北西,5,北東,5.5,95.4,0,0.5,1.5,5
359,2024-01-01T05:58:00,1.3,北西,5,北東,5.5,95.5,0,0.5,1.5,5
360,2024-01-01T05:59:00,1.3,北西,5,北東,5.4,95.6,0,0.5,1.5,5
361,2024-01-01T06:00:00,1.2,北西,5,北東,5.4,95.5,0,0.5,1.5,5
362,2024-01-01T06:01:00,1.1,北西,3.7,南西,5.5,95.4,0,0.5,1.5,5
363,2024-01-01T06:02:00,1.1,北西,3.7,南西,5.6,95,0,0.5,1.5,5
364,2024-01-01T06:03:00,1,北西,3.7,南西,5.5,95.3,0,0.5,1.5,5
365,2024-01-01T06:04:00,0.9,北北西,3.3,西,5.4,95.5,0,0.5,1.5,5
366,2024-01-01T06:05:00,0.9,北北西,2.5,北北西,5.3,96.2,0,0.5,1.5,5
367,2024-01-01T06:06:00,0.8,北北西,2.5,北北西,5.4,95.4,0,0.5,1.5,5
368,2024-01-01T06:07:00,0.8,北,2.5,北北西,5.3,95.8,0,0,1.5,5
369,2024-01-01T06:08:00,0.8,北北東,2.5,北北西,5.2,96.2,0,0,1.5,5
370,2024-01-01T06:09:00,0.7,北北東,1.8,北,5.2,96.6,0,0,1.5,5
371,2024-01-01T06:10:00,0.6,北北東,1.8,北,5.2,96.6,0,0,1.5,5
372,2024-01-01T06:11:00,0.5,北東,1.8,北,5.2,96.5,0,0,1.5,5
373,2024-01-01T06:12:00,0.6,北東,2.7,北東,5.2,96.4,0,0,1.5,5
374,2024-01-01T06:13:00,0.7,北東,2.7,北東,5.3,96.2,0,0,1.5,5
375,2024-01-01T06:14:00,0.7,北東,2.7,北東,5.4,95.6,0,0,1.5,5
376,2024-01-01T06:15:00,0.7,北東,2.8,東北東,5.4,95.6,0,0,1.5,5
377,2024-01-01T06:16:00,0.8,北東,3.4,北東,5.5,95.2,0,0,1.5,5
378,2024-01-01T06:17:00,0.8,北東,3.4,北東,5.4,95.3,0,0,1.5,5
379,2024-01-01T06:18:00,0.8,北東,3.4,北東,5.4,95.6,0,0,1.5,5
380,2024-01-01T06:19:00,0.8,北東,3.4,北東,5.4,95.9,0,0,1.5,5
381,2024-01-01T06:20:00,0.8,北東,3.4,北東,5.3,96.4,0,0,1.5,5
382,2024-01-01T06:21:00,0.9,北東,3.4,北東,5.3,96.1,0,0,1.5,5
383,2024-01-01T06:22:00,0.9,北東,3.4,北東,5.3,96.7,0,0,1.5,5
384,2024-01-01T06:23:00,0.8,北東,3.4,北東,5.3,96.2,0,0,1.5,5
385,2024-01-01T06:24:00,0.9,東北東,3.4,北東,5.4,96,0,0,1.5,5
386,2024-01-01T06:25:00,0.8,東北東,3.4,北東,5.4,96.6,0,0,1.5,5
387,2024-01-01T06:26:00,0.7,東北東,1.7,北,5.3,97.1,0,0,1.5,5
388,2024-01-01T06:27:00,0.7,東北東,1.7,北,5.3,96.8,0,0,1.5,5
389,2024-01-01T06:28:00,0.7,東北東,1.7,北,5.3,96.4,0,0,1.5,5
390,2024-01-01T06:29:00,0.7,東北東,1.7,北,5.2,97.1,0,0,1.5,5
391,2024-01-01T06:30:00,0.6,東,1.7,北,5.1,97.5,0,0,1.5,5
392,2024-01-01T06:31:00,0.6,東,1.5,東南東,5.1,97.9,0,0,1.5,5
393,2024-01-01T06:32:00,0.5,東,1.5,東南東,5,98.2,0,0,1.5,5
394,2024-01-01T06:33:00,0.4,東南東,1.5,東南東,4.9,98.4,0,0,1.5,5
395,2024-01-01T06:34:00,0.3,東南東,1.1,北東,4.9,98.6,0,0,1.5,5
396,2024-01-01T06:35:00,0.3,南東,1.2,南,5,98.7,0,0,1.5,5
397,2024-01-01T06:36:00,0.4,南東,1.5,南,4.9,98.9,0,0,1.5,5
398,2024-01-01T06:37:00,0.5,南南東,1.5,南,4.9,99.1,0,0,1.5,5
399,2024-01-01T06:38:00,0.4,南南東,1.5,南,4.8,99.3,0,0,1.5,5
400,2024-01-01T06:39:00,0.4,南東,1.5,南,4.9,99.6,0,0,1.5,5
401,2024-01-01T06:40:00,0.5,南東,1.5,南,5,99.9,0,0,1.5,5
402,2024-01-01T06:41:00,0.6,南東,1.5,南,4.9,99.9,0,0,1.5,5
403,2024-01-01T06:42:00,0.7,南東,1.5,南,4.9,99.8,0,0,1.5,5
404,2024-01-01T06:43:00,0.7,東南東,1.5,南,4.9,99.9,0,0,1.5,5
405,2024-01-01T06:44:00,0.7,東南東,1.5,南,4.9,100,0,0,1.5,5
406,2024-01-01T06:45:00,0.8,東,1.9,東,4.9,100,0,0,1.5,5
407,2024-01-01T06:46:00,0.7,東,1.9,東,4.9,100,0,0,1.5,5
408,2024-01-01T06:47:00,0.6,東,1.9,東,4.8,100,0,0,1.5,5
409,2024-01-01T06:48:00,0.6,東北東,1.9,東,4.8,100,0,0,1.5,5
410,2024-01-01T06:49:00,0.6,東北東,1.9,東,4.8,100,0,0,1.5,5
411,2024-01-01T06:50:00,0.5,東北東,1.9,東,4.8,100,0,0,1.5,5
412,2024-01-01T06:51:00,0.6,北東,1.9,東,4.9,100,0,0,1.5,5
413,2024-01-01T06:52:00,0.5,北東,1.9,東,5,100,0,0,1.5,5
414,2024-01-01T06:53:00,0.6,北北東,1.9,東,4.9,100,0,0,1.5,5